Simultaneous Nadir Overpasses (SNOs) Predictions

Prediction of SNOs between NOAA-20 and NOAA-19 Satellite Orbit:

Table of predicted SNOs for the next 14.0 days since TLE Epoch: 5/25/2024
Index Date (NOAA-20) Time (NOAA-20) Lat,Lon (NOAA-20) SZA (NOAA-20 ) Date (NOAA-19) Time (NOAA-19) Lat,Lon (NOAA-19) SZA (NOAA-19 ) Distance(km) Time Diff (sec)
1 05/25/2024 04:52:33 -72.85, -81.48 128.11 05/25/2024 04:51:24 -72.85, -83.49 127.99 65.87 69
2 05/25/2024 05:43:24 73.11, 85.27 52.18 05/25/2024 05:42:12 73.09, 84.33 52.21 30.64 72
3 05/25/2024 06:34:12 -73.32,-107.86 127.61 05/25/2024 06:33:12 -73.34,-107.85 127.58 2.73 60
4 05/25/2024 07:24:58 73.33, 59.42 52.40 05/25/2024 07:24:05 73.33, 59.41 52.42 0.71 53
5 05/25/2024 08:15:42 -73.33,-133.26 127.61 05/25/2024 08:15:10 -73.34,-133.34 127.59 2.80 32
6 05/25/2024 09:06:28 73.34, 34.02 52.40 05/25/2024 09:06:03 73.33, 33.92 52.40 3.20 25
7 05/25/2024 09:57:13 -73.39,-158.78 127.55 05/25/2024 09:57:07 -73.39,-158.71 127.56 2.13 6
8 05/25/2024 10:47:59 73.40, 8.50 52.46 05/25/2024 10:48:00 73.38, 8.55 52.44 2.73 1
9 05/25/2024 11:38:43 -73.41, 175.82 127.55 05/25/2024 11:39:05 -73.39, 175.80 127.57 1.59 22
10 05/25/2024 12:29:29 73.42, -16.90 52.46 05/25/2024 12:29:57 73.43, -16.82 52.47 3.17 28
11 05/25/2024 13:20:13 -73.42, 150.41 127.55 05/25/2024 13:21:02 -73.44, 150.43 127.54 2.62 49
12 05/25/2024 14:10:59 73.43, -42.31 52.46 05/25/2024 14:11:55 73.44, -42.31 52.46 0.48 56
13 05/25/2024 15:01:45 -73.53, 124.78 127.44 05/25/2024 15:02:59 -73.49, 125.06 127.51 9.78 74
14 05/25/2024 15:52:36 73.79, -68.52 52.85 05/25/2024 15:53:46 73.78, -66.96 52.74 48.50 70



Historial Predications of SNOs between NOAA-20 and NOAA-19
